EW4483 Weather Reports


Display with metric or nautical units.
time (UTC)temp
F
wind
direction
speed
MPH
gust
MPH
rain 1hr
in
rain 24hr
in
rain mn
in
humidity
%
barometer
mb
20210727230305 87 313 7.0 10.0 0.00 0.00 0.00 68 999.3
20210727225804 86 292 6.0 9.0 0.00 0.00 0.00 70 999.3
20210727225305 86 261 3.0 10.0 0.00 0.00 0.00 71 999.3
20210727224804 86 290 3.0 7.0 0.00 0.00 0.00 70 999.3
20210727224305 86 292 4.0 7.0 0.00 0.00 0.00 71 999.3
20210727223804 86 292 4.0 7.0 0.00 0.00 0.00 70 999.3
20210727223304 86 300 5.0 7.0 0.00 0.00 0.00 70 999.3
20210727222805 85 297 3.0 7.0 0.00 0.00 0.00 71 999.3
20210727222306 85 305 5.0 7.0 0.00 0.00 0.00 72 999.4
20210727221804 85 308 2.0 6.0 0.00 0.00 0.00 73 999.4
20210727221304 84 318 2.0 8.0 0.00 0.00 0.00 73 999.4
20210727220804 84 276 2.0 3.0 0.00 0.00 0.00 74 999.4
20210727220305 84 319 2.0 3.0 0.00 0.00 0.00 75 999.3
20210727215805 84 320 1.0 2.0 0.00 0.00 0.00 77 999.3
20210727215305 83 318 1.0 2.0 0.00 0.00 0.00 77 999.3
20210727214805 83 30 0.0 0.0 0.00 0.00 0.00 78 999.3
20210727214304 83 30 0.0 0.0 0.00 0.00 0.00 78 999.3
20210727213805 83 30 0.0 0.0 0.00 0.00 0.00 79 999.4
20210727213304 82 30 0.0 0.0 0.00 0.00 0.00 80 999.5
20210727212805 82 30 0.0 0.0 0.00 0.00 0.00 81 999.4
20210727212306 82 30 0.0 0.0 0.00 0.00 0.00 81 999.4
20210727211804 81 30 0.0 0.0 0.00 0.00 0.00 81 999.4
20210727211305 81 30 0.0 0.0 0.00 0.00 0.00 82 999.3
20210727210805 81 30 0.0 1.0 0.00 0.00 0.00 82 999.3
20210727210304 80 30 1.0 2.0 0.00 0.00 0.00 83 999.3
20210727205805 80 30 1.0 2.0 0.00 0.00 0.00 83 999.3
20210727205306 80 30 2.0 3.0 0.00 0.00 0.00 83 999.3
20210727204804 80 4 2.0 3.0 0.00 0.00 0.00 83 999.3
20210727204304 80 20 1.0 3.0 0.00 0.00 0.00 84 999.3
20210727203804 80 30 2.0 3.0 0.00 0.00 0.00 83 999.2
20210727203304 80 24 2.0 5.0 0.00 0.00 0.00 83 999.2
20210727202804 80 45 2.0 5.0 0.00 0.00 0.00 84 999.1
20210727202305 80 51 1.0 3.0 0.00 0.00 0.00 84 999.1
20210727201805 80 47 1.0 3.0 0.00 0.00 0.00 83 999.1
20210727201304 80 47 1.0 3.0 0.00 0.00 0.00 84 999.1
20210727200804 80 16 1.0 2.0 0.00 0.00 0.00 84 999.0
20210727200304 80 16 1.0 3.0 0.00 0.00 0.00 84 999.0
20210727195804 80 16 2.0 3.0 0.00 0.00 0.00 84 999.0
20210727195306 80 16 1.0 3.0 0.00 0.00 0.00 83 999.0
20210727194804 80 16 1.0 2.0 0.00 0.00 0.00 83 999.0
20210727194305 80 16 1.0 2.0 0.00 0.00 0.00 83 999.0
20210727193804 80 16 0.0 1.0 0.00 0.00 0.00 83 999.0
20210727193304 80 16 0.0 1.0 0.00 0.00 0.00 83 999.0
20210727192805 80 16 0.0 1.0 0.00 0.00 0.00 83 999.1
20210727192306 80 16 0.0 1.0 0.00 0.00 0.00 83 999.1
20210727191805 80 16 0.0 1.0 0.00 0.00 0.00 83 999.1
20210727191304 80 16 0.0 1.0 0.00 0.00 0.00 83 999.1
20210727190804 80 16 0.0 1.0 0.00 0.00 0.00 83 999.1
20210727190305 80 16 1.0 2.0 0.00 0.00 0.00 83 999.0
20210727185805 80 16 0.0 2.0 0.00 0.00 0.00 83 999.0
20210727185306 80 16 1.0 2.0 0.00 0.00 0.00 83 998.9
20210727184805 80 16 1.0 2.0 0.00 0.00 0.00 83 998.9
20210727184305 80 17 0.0 1.0 0.00 0.00 0.00 83 998.9
20210727183805 80 16 1.0 2.0 0.00 0.00 0.00 83 998.8
20210727183304 81 16 1.0 3.0 0.00 0.00 0.00 82 998.9
20210727182805 81 52 1.0 2.0 0.00 0.00 0.00 82 998.9
20210727182306 81 52 1.0 2.0 0.00 0.00 0.00 82 998.8
20210727181805 81 52 1.0 2.0 0.00 0.00 0.00 82 998.9
20210727181305 81 52 1.0 2.0 0.00 0.00 0.00 81 998.9
20210727180804 81 52 0.0 1.0 0.00 0.00 0.00 82 998.9
20210727180305 81 52 1.0 2.0 0.00 0.00 0.00 82 998.9
20210727175804 81 52 0.0 1.0 0.00 0.00 0.00 82 998.8
20210727175305 81 52 0.0 1.0 0.00 0.00 0.00 82 998.8
20210727174804 80 52 0.0 1.0 0.00 0.00 0.00 82 998.7
20210727174306 80 52 0.0 1.0 0.00 0.00 0.00 82 998.7
20210727173805 80 52 0.0 1.0 0.00 0.00 0.00 82 998.6
20210727173304 80 52 0.0 1.0 0.00 0.00 0.00 82 998.6
20210727172804 80 52 0.0 0.0 0.00 0.00 0.00 82 998.6
20210727172306 80 52 0.0 1.0 0.00 0.00 0.00 83 998.6
20210727171805 80 52 0.0 1.0 0.00 0.00 0.00 82 998.5
20210727171304 81 52 1.0 2.0 0.00 0.00 0.00 83 998.5
20210727170805 81 52 0.0 1.0 0.00 0.00 0.00 82 998.5
20210727170304 81 52 0.0 1.0 0.00 0.00 0.00 82 998.5
20210727165804 81 52 0.0 1.0 0.00 0.00 0.00 82 998.5
20210727165306 81 52 0.0 0.0 0.00 0.00 0.00 81 998.4
20210727164804 81 52 0.0 1.0 0.00 0.00 0.00 81 998.4
20210727164305 81 52 0.0 1.0 0.00 0.00 0.00 81 998.5
20210727163805 81 52 0.0 1.0 0.00 0.00 0.00 81 998.5
20210727163304 81 52 1.0 2.0 0.00 0.00 0.00 81 998.5
20210727162804 81 52 0.0 1.0 0.00 0.00 0.00 81 998.5
20210727162305 81 52 0.0 2.0 0.00 0.00 0.00 81 998.5
20210727161804 81 52 0.0 1.0 0.00 0.00 0.00 81 998.4
20210727161304 81 52 0.0 1.0 0.00 0.00 0.00 81 998.4
20210727160804 81 52 0.0 1.0 0.00 0.00 0.00 80 998.4
20210727160305 81 52 1.0 2.0 0.00 0.00 0.00 80 998.4
20210727155804 81 41 1.0 3.0 0.00 0.00 0.00 80 998.4
20210727155305 82 63 1.0 3.0 0.00 0.00 0.00 80 998.4
20210727154805 82 73 1.0 2.0 0.00 0.00 0.00 80 998.4
20210727154304 81 73 2.0 3.0 0.00 0.00 0.00 80 998.4
20210727153804 81 73 1.0 2.0 0.00 0.00 0.00 80 998.4
20210727153305 81 73 1.0 2.0 0.00 0.00 0.00 80 998.5
20210727152805 82 73 1.0 3.0 0.00 0.00 0.00 81 998.5
20210727152305 82 73 1.0 2.0 0.00 0.00 0.00 82 998.5
20210727151804 82 73 1.0 2.0 0.00 0.00 0.00 82 998.5
20210727151305 82 73 1.0 2.0 0.00 0.00 0.00 83 998.5
20210727150804 82 73 0.0 0.0 0.00 0.00 0.00 83 998.5
20210727150304 82 73 0.0 0.0 0.00 0.00 0.00 83 998.6
20210727145805 82 73 0.0 0.0 0.00 0.00 0.00 83 998.6
20210727145306 82 73 0.0 0.0 0.00 0.00 0.00 82 998.5
20210727144805 82 73 0.0 1.0 0.00 0.00 0.00 82 998.6
20210727144304 82 73 0.0 0.0 0.00 0.00 0.00 82 998.6
20210727143804 82 73 0.0 0.0 0.00 0.00 0.00 83 998.6
20210727143304 82 73 0.0 0.0 0.00 0.00 0.00 82 998.6
20210727142805 82 73 0.0 1.0 0.00 0.00 0.00 82 998.6
20210727142305 82 73 0.0 1.0 0.00 0.00 0.00 83 998.6
20210727141805 82 73 0.0 1.0 0.00 0.00 0.00 83 998.6
20210727141304 82 73 0.0 1.0 0.00 0.00 0.00 83 998.6
20210727140804 82 73 1.0 1.0 0.00 0.00 0.00 83 998.6
20210727140304 82 73 0.0 1.0 0.00 0.00 0.00 83 998.5
20210727135804 82 73 1.0 2.0 0.00 0.00 0.00 83 998.5
20210727135306 82 73 1.0 2.0 0.00 0.00 0.00 83 998.4
20210727134805 82 73 0.0 1.0 0.00 0.00 0.00 83 998.4
20210727134304 82 73 0.0 1.0 0.00 0.00 0.00 82 998.3
20210727133804 82 73 0.0 3.0 0.00 0.00 0.00 82 998.2
20210727133304 82 73 2.0 5.0 0.00 0.00 0.00 83 998.2
20210727132804 82 35 3.0 5.0 0.00 0.00 0.00 83 998.1
20210727132307 82 62 2.0 5.0 0.00 0.00 0.00 83 998.1
20210727131805 83 21 2.0 3.0 0.00 0.00 0.00 83 998.0
20210727131304 83 43 1.0 3.0 0.00 0.00 0.00 82 998.0
20210727130804 83 34 2.0 3.0 0.00 0.00 0.00 82 998.0
20210727130305 83 53 1.0 3.0 0.00 0.00 0.00 82 997.9
20210727125805 83 53 1.0 2.0 0.00 0.00 0.00 82 997.9
20210727125305 83 53 1.0 3.0 0.00 0.00 0.00 81 997.8
20210727124804 83 53 2.0 3.0 0.00 0.00 0.00 81 997.8
20210727124304 83 53 1.0 2.0 0.00 0.00 0.00 81 997.7
20210727123805 83 65 2.0 3.0 0.00 0.00 0.00 80 997.7
20210727123304 84 60 1.0 3.0 0.00 0.00 0.00 80 997.7
20210727122804 84 68 1.0 3.0 0.00 0.00 0.00 80 997.7
20210727122306 84 67 0.0 2.0 0.00 0.00 0.00 80 997.7
20210727121804 84 67 1.0 3.0 0.00 0.00 0.00 80 997.7
20210727121304 84 75 1.0 3.0 0.00 0.00 0.00 80 997.6
20210727120804 84 89 2.0 6.0 0.00 0.00 0.00 79 997.6
20210727120305 84 85 2.0 3.0 0.00 0.00 0.00 79 997.6
20210727115805 84 66 1.0 5.0 0.00 0.00 0.00 79 997.6
20210727115306 84 89 3.0 6.0 0.00 0.00 0.00 79 997.5
20210727114804 84 89 2.0 5.0 0.00 0.00 0.00 78 997.5
20210727114304 84 81 1.0 6.0 0.00 0.00 0.00 78 997.6
20210727113805 85 84 1.0 3.0 0.00 0.00 0.00 78 997.5
20210727113305 85 77 2.0 7.0 0.00 0.00 0.00 78 997.5
20210727112804 85 98 2.0 5.0 0.00 0.00 0.00 78 997.4
20210727112306 85 77 1.0 3.0 0.00 0.00 0.00 79 997.3
20210727111806 85 74 1.0 3.0 0.00 0.00 0.00 79 997.3
20210727111304 85 130 1.0 3.0 0.00 0.00 0.00 79 997.2
20210727110804 85 160 0.0 1.0 0.00 0.00 0.00 78 997.1
20210727110305 85 160 0.0 2.0 0.00 0.00 0.00 78 997.0
20210727105805 85 161 1.0 2.0 0.00 0.00 0.00 77 997.0
20210727105306 85 180 0.0 1.0 0.00 0.00 0.00 77 996.9
20210727104805 86 180 0.0 2.0 0.00 0.00 0.00 77 996.9
20210727104305 86 180 0.0 2.0 0.00 0.00 0.00 77 996.9
20210727103805 86 180 1.0 2.0 0.00 0.00 0.00 76 996.8
20210727103304 86 180 1.0 2.0 0.00 0.00 0.00 76 996.8
20210727102804 86 180 1.0 2.0 0.00 0.00 0.00 76 996.8
20210727102306 86 180 0.0 2.0 0.00 0.00 0.00 76 996.8
20210727101805 86 180 1.0 2.0 0.00 0.00 0.00 76 996.7
20210727101304 86 180 1.0 2.0 0.00 0.00 0.00 76 996.7
20210727100805 86 186 1.0 2.0 0.00 0.00 0.00 76 996.7
20210727100304 86 187 0.0 1.0 0.00 0.00 0.00 75 996.7
20210727095804 86 187 0.0 2.0 0.00 0.00 0.00 75 996.7
20210727095306 86 187 0.0 1.0 0.00 0.00 0.00 75 996.7
20210727094805 86 187 0.0 2.0 0.00 0.00 0.00 75 996.7
20210727094304 86 187 0.0 3.0 0.00 0.00 0.00 75 996.7
20210727093805 86 193 1.0 3.0 0.00 0.00 0.00 74 996.6
20210727093304 86 197 1.0 3.0 0.00 0.00 0.00 75 996.6
20210727092804 86 205 3.0 3.0 0.00 0.00 0.00 74 996.5
20210727092306 86 214 2.0 6.0 0.00 0.00 0.00 73 996.6
20210727091805 86 209 5.0 6.0 0.00 0.00 0.00 72 996.6
20210727091305 86 214 3.0 6.0 0.00 0.00 0.00 73 996.6
20210727090804 86 216 3.0 5.0 0.00 0.00 0.00 74 996.6
20210727090304 86 206 3.0 6.0 0.00 0.00 0.00 74 996.5
20210727085805 86 211 3.0 5.0 0.00 0.00 0.00 75 996.5
20210727085305 86 208 5.0 7.0 0.00 0.00 0.00 74 996.4
20210727084805 86 209 3.0 6.0 0.00 0.00 0.00 75 996.4
20210727084305 86 208 3.0 3.0 0.00 0.00 0.00 74 996.4
20210727083804 86 207 3.0 3.0 0.00 0.00 0.00 74 996.4
20210727083305 86 212 4.0 6.0 0.00 0.00 0.00 73 996.4
20210727082804 87 210 3.0 5.0 0.00 0.00 0.00 73 996.5
20210727082306 86 182 2.0 7.0 0.00 0.00 0.00 73 996.5
20210727081805 86 201 3.0 6.0 0.00 0.00 0.00 74 996.4
20210727081304 87 214 3.0 9.0 0.00 0.00 0.00 74 996.4
20210727080804 87 202 5.0 9.0 0.00 0.00 0.00 73 996.4
20210727080305 87 204 5.0 8.0 0.00 0.00 0.00 72 996.3
20210727075804 87 212 3.0 7.0 0.00 0.00 0.00 69 996.3
20210727075305 87 216 5.0 7.0 0.00 0.00 0.00 69 996.3
20210727074805 87 191 3.0 6.0 0.00 0.00 0.00 69 996.3
20210727074304 88 210 3.0 7.0 0.00 0.00 0.00 69 996.3
20210727073804 88 210 4.0 6.0 0.00 0.00 0.00 69 996.3
20210727073305 88 205 2.0 5.0 0.00 0.00 0.00 70 996.3
20210727072804 89 193 3.0 5.0 0.00 0.00 0.00 69 996.3
20210727072305 89 212 3.0 6.0 0.00 0.00 0.00 68 996.3
20210727071805 90 197 3.0 7.0 0.00 0.00 0.00 69 996.3
20210727071305 90 185 3.0 7.0 0.00 0.00 0.00 68 996.3
20210727070804 90 186 3.0 7.0 0.00 0.00 0.00 68 996.3
20210727070305 91 171 3.0 9.0 0.00 0.00 0.00 68 996.3
20210727065804 92 197 3.0 7.0 0.00 0.00 0.00 66 996.3
20210727065306 91 166 2.0 6.0 0.00 0.00 0.00 67 996.2
20210727064804 91 173 1.0 7.0 0.00 0.00 0.00 68 996.3
20210727064304 91 204 3.0 6.0 0.00 0.00 0.00 68 996.3
20210727063805 91 179 3.0 7.0 0.00 0.00 0.00 67 996.3
20210727063304 91 172 2.0 5.0 0.00 0.00 0.00 68 996.3
20210727062804 91 176 3.0 8.0 0.00 0.00 0.00 67 996.4
20210727062305 91 165 2.0 7.0 0.00 0.00 0.00 67 996.4
20210727061805 91 190 2.0 7.0 0.00 0.00 0.00 67 996.4
20210727061304 91 146 3.0 8.0 0.00 0.00 0.00 67 996.5
20210727060804 91 146 4.0 9.0 0.00 0.00 0.00 66 996.5
20210727060304 91 153 2.0 6.0 0.00 0.00 0.00 68 996.5
20210727055804 91 185 3.0 5.0 0.00 0.00 0.00 69 996.5
20210727055305 90 173 2.0 5.0 0.00 0.00 0.00 70 996.6
20210727054804 90 174 3.0 7.0 0.00 0.00 0.00 71 996.5
20210727054304 90 205 3.0 7.0 0.00 0.00 0.00 70 996.5
20210727053804 89 168 2.0 7.0 0.00 0.00 0.00 71 996.5
20210727053305 90 204 3.0 9.0 0.00 0.00 0.00 70 996.5
20210727052804 90 156 2.0 5.0 0.00 0.00 0.00 70 996.6
20210727052305 90 182 2.0 6.0 0.00 0.00 0.00 70 996.6
20210727051804 89 176 3.0 6.0 0.00 0.00 0.00 71 996.7
20210727051305 89 170 2.0 6.0 0.00 0.00 0.00 72 996.7
20210727050804 89 187 3.0 5.0 0.00 0.00 0.00 70 996.8
20210727050304 90 153 2.0 5.0 0.00 0.00 0.00 69 996.8
20210727045805 90 172 3.0 6.0 0.00 0.00 0.00 69 996.8
20210727045306 90 142 3.0 7.0 0.00 0.00 0.00 69 996.9
20210727044805 91 117 3.0 8.0 0.00 0.00 0.00 70 996.9
20210727044304 91 128 3.0 7.0 0.00 0.00 0.00 71 996.8
20210727043804 91 126 4.0 10.0 0.00 0.00 0.00 70 996.9
20210727043304 91 130 3.0 8.0 0.00 0.00 0.00 71 996.8
20210727042805 90 130 2.0 5.0 0.00 0.00 0.00 70 996.8
20210727042306 90 234 2.0 5.0 0.00 0.00 0.00 71 996.8
20210727041804 89 242 3.0 6.0 0.00 0.00 0.00 72 996.7
20210727041304 88 246 2.0 5.0 0.00 0.00 0.00 73 996.6
20210727040804 88 218 4.0 7.0 0.00 0.00 0.00 72 996.5
20210727040305 88 209 5.0 8.0 0.00 0.00 0.00 72 996.5
20210727035804 89 220 5.0 8.0 0.00 0.00 0.00 72 996.6
20210727035306 89 207 0.0 3.0 0.00 0.00 0.00 71 996.8
20210727034805 89 199 1.0 2.0 0.00 0.00 0.00 71 996.9
20210727034304 88 199 2.0 3.0 0.00 0.00 0.00 73 997.0
20210727033805 88 131 1.0 3.0 0.00 0.00 0.00 74 997.1
20210727033304 88 218 3.0 5.0 0.00 0.00 0.00 73 997.1
20210727032804 88 215 1.0 3.0 0.00 0.00 0.00 74 997.2
20210727032306 87 225 2.0 5.0 0.00 0.00 0.00 73 997.3
20210727031804 88 206 2.0 3.0 0.00 0.00 0.00 73 997.3
20210727031304 89 224 3.0 5.0 0.00 0.00 0.00 72 997.3
20210727030805 89 178 2.0 5.0 0.00 0.00 0.00 71 997.4
20210727030304 89 195 2.0 5.0 0.00 0.00 0.00 71 997.4
20210727025804 89 194 2.0 3.0 0.00 0.00 0.00 71 997.4
20210727025305 89 139 2.0 3.0 0.00 0.00 0.00 71 997.5
20210727024804 89 141 1.0 3.0 0.00 0.00 0.00 72 997.6
20210727024304 88 117 2.0 6.0 0.00 0.00 0.00 72 997.6
20210727023805 88 112 2.0 3.0 0.00 0.00 0.00 72 997.6
20210727023304 88 142 3.0 7.0 0.00 0.00 0.00 74 997.6
20210727022804 88 138 3.0 5.0 0.00 0.00 0.00 75 997.6
20210727022305 88 121 2.0 6.0 0.00 0.00 0.00 75 997.6
20210727021804 88 135 2.0 8.0 0.00 0.00 0.00 75 997.6
20210727021304 88 133 3.0 8.0 0.00 0.00 0.00 75 997.6
20210727020804 88 136 3.0 7.0 0.00 0.00 0.00 75 997.6
20210727020305 89 132 3.0 8.0 0.00 0.00 0.00 74 997.7
20210727015804 89 137 3.0 9.0 0.00 0.00 0.00 73 997.6
20210727015305 90 137 5.0 8.0 0.00 0.00 0.00 71 997.5
20210727014804 90 149 3.0 5.0 0.00 0.00 0.00 70 997.5
20210727014305 90 171 2.0 3.0 0.00 0.00 0.00 66 997.6
20210727013804 90 200 2.0 3.0 0.00 0.00 0.00 57 997.5
20210727013304 90 201 2.0 3.0 0.00 0.00 0.00 56 997.5
20210727012804 90 112 1.0 2.0 0.00 0.00 0.00 57 997.5
20210727012305 89 112 1.0 3.0 0.00 0.00 0.00 59 997.5
20210727011804 88 95 1.0 3.0 0.00 0.00 0.00 61 997.5
20210727011304 88 64 2.0 3.0 0.00 0.00 0.00 61 997.6
20210727010805 88 55 1.0 3.0 0.00 0.00 0.00 61 997.6
20210727010305 87 31 2.0 3.0 0.00 0.00 0.00 62 997.6
20210727005804 87 54 5.0 8.0 0.00 0.00 0.00 62 997.6
20210727005305 87 57 1.0 5.0 0.00 0.00 0.00 62 997.5
20210727004804 88 26 2.0 5.0 0.00 0.00 0.00 63 997.6
20210727004304 87 54 3.0 5.0 0.00 0.00 0.00 60 997.6
20210727003805 88 46 3.0 5.0 0.00 0.00 0.00 61 997.5
20210727003305 87 49 5.0 7.0 0.00 0.00 0.00 63 997.5
20210727002804 87 17 3.0 5.0 0.00 0.00 0.00 62 997.5
20210727002306 88 31 3.0 7.0 0.00 0.00 0.00 60 997.4
20210727001804 88 57 3.0 3.0 0.00 0.00 0.00 62 997.3
20210727001304 87 71 2.0 8.0 0.00 0.00 0.00 63 997.2
20210727000804 87 70 3.0 7.0 0.00 0.00 0.00 63 997.2
20210727000305 87 8 2.0 8.0 0.00 0.00 0.00 64 997.1
20210726235805 87 89 3.0 8.0 0.00 0.00 0.00 64 997.0
20210726235306 87 64 2.0 7.0 0.00 0.00 0.00 64 997.0
20210726234804 87 48 2.0 9.0 0.00 0.00 0.00 65 997.0
20210726234304 87 60 3.0 7.0 0.00 0.00 0.00 65 997.0
20210726233805 87 56 3.0 8.0 0.00 0.00 0.00 65 997.0
20210726233305 86 38 3.0 5.0 0.00 0.00 0.00 64 997.0
20210726232804 86 22 2.0 3.0 0.00 0.00 0.00 67 997.0
20210726232305 85 29 2.0 3.0 0.00 0.00 0.00 68 997.0
20210726231805 85 39 1.0 3.0 0.00 0.00 0.00 70 997.1
20210726231304 84 23 2.0 3.0 0.00 0.00 0.00 70 997.1
20210726230804 84 44 1.0 2.0 0.00 0.00 0.00 72 997.1